[[{"header":{"parameterUnit":"m.s-1","parameterCategory":2,"la1":30.2992,"la2":30.254,"lo1":-89.0895,"lo2":-89.0443,"dy":0.0025,"dx":0.0025,"nx":19,"ny":19,"refTime":"2026-05-18T21:00:00:Z","depth":"0","parameterNumber":2,"parameterNumberName":"U-component_of_CURRENTS"},"data":[0,0,0,-0.2368,-0.2369,-0.2425,-0.2425,-0.2443,-0.2443,0,0,0,0,0,0,0,0,0,0,0,-0.2337,-0.2338,-0.2367,-0.2369,-0.2425,-0.2425,-0.2443,-0.2443,0,0,0,0,0,0,0,0,0,0,0,-0.2337,-0.2338,-0.2338,-0.237,-0.2425,-0.2425,-0.2443,-0.2412,0,0,0,0,0,0,0,0,0,0,-0.2363,-0.2336,-0.2338,-0.2338,-0.237,-0.2425,-0.2425,-0.2411,-0.2414,-0.2406,0,-0.2416,0,-0.2439,-0.2444,-0.2444,0,0,0,-0.2359,-0.2334,-0.2363,-0.2338,-0.2371,-0.2425,-0.2397,-0.2413,-0.2416,-0.2409,-0.2417,-0.2418,-0.2439,-0.2444,-0.2445,-0.2517,-0.2518,0,0,-0.2356,-0.2332,-0.2361,-0.2366,-0.2387,-0.2395,-0.2399,-0.2415,-0.2409,-0.2417,-0.2419,-0.2439,-0.2445,-0.2445,-0.2516,-0.2517,0,0,0,-0.2354,-0.233,-0.236,-0.2364,-0.2383,-0.2397,-0.2401,-0.2408,-0.2423,-0.242,-0.244,-0.2445,-0.2445,-0.2516,-0.2517,-0.2545,0,0,0,-0.2352,-0.233,-0.2358,-0.2343,-0.2384,-0.2402,-0.2394,-0.2421,-0.2424,-0.2439,-0.2445,-0.2445,-0.2515,-0.2516,-0.2543,-0.252,0,0,0,-0.2335,-0.2328,-0.2339,-0.2342,-0.2374,-0.2403,-0.2417,-0.2422,-0.2437,-0.2444,-0.2445,-0.2514,-0.2516,-0.2541,-0.2518,-0.247,0,0,0,-0.2303,-0.2343,-0.2338,-0.2395,-0.2374,-0.2464,-0.2418,-0.2466,-0.2481,-0.2445,-0.2515,-0.2517,-0.254,-0.2516,-0.247,-0.2244,-0.2227,0,0,-0.2346,-0.2347,-0.2388,-0.2387,-0.2473,-0.2455,-0.2528,-0.2515,-0.25,-0.2502,-0.2504,-0.2544,-0.2517,-0.247,-0.234,-0.2319,0,0,0,-0.24,-0.2414,-0.2447,-0.2487,-0.2547,-0.2557,-0.257,-0.2566,-0.2565,-0.2518,-0.257,-0.2552,-0.252,-0.2385,-0.237,-0.2278,-0.2524,-0.2524,-0.2524,-0.238,-0.2435,-0.249,-0.2549,-0.2595,-0.2633,-0.2636,-0.2625,-0.2626,-0.2632,-0.2596,-0.2605,-0.2466,-0.2451,-0.2362,-0.2639,-0.2639,-0.2639,-0.2639,-0.2408,-0.242,-0.2485,-0.2552,-0.2586,-0.2631,-0.2664,-0.266,-0.2642,-0.2652,-0.2621,-0.2449,-0.2435,-0.2346,-0.2641,-0.2641,-0.2641,-0.264,-0.264,-0.235,-0.236,-0.2414,-0.2479,-0.2524,-0.2587,-0.2577,-0.2621,-0.2629,-0.262,-0.2427,-0.2423,-0.2319,-0.2598,-0.2597,-0.2597,-0.2597,-0.2597,-0.2597,-0.2239,-0.2301,-0.2304,-0.2393,-0.241,-0.245,-0.2512,-0.2496,-0.2434,-0.241,-0.2408,-0.23,-0.259,-0.2562,-0.2592,-0.2593,-0.2594,-0.2594,-0.2594,-0.2124,-0.2151,-0.2153,-0.217,-0.2228,-0.22,-0.23,-0.2199,-0.2194,-0.2104,-0.2026,-0.2281,-0.2228,-0.2237,-0.22,-0.2135,-0.2135,-0.2135,-0.2135,-0.2002,-0.2035,-0.1987,-0.1984,-0.2009,-0.2066,-0.1895,-0.1835,-0.1769,-0.1696,-0.1793,-0.1764,-0.1787,-0.171,-0.1731,-0.1685,-0.1492,-0.1491,-0.149,-0.1887,-0.1904,-0.1821,-0.1865,-0.19,-0.1885,-0.1667,-0.1465,-0.139,-0.1467,-0.1716,-0.1743,-0.1715,-0.1757,-0.165,-0.1688,-0.1618,0,0]},{"header":{"parameterUnit":"m.s-1","parameterCategory":2,"la1":30.2992,"la2":30.254,"lo1":-89.0895,"lo2":-89.0443,"dy":0.0025,"dx":0.0025,"nx":19,"ny":19,"refTime":"2026-05-18T21:00:00:Z","depth":"0","parameterNumber":3,"parameterNumberName":"V-component_of_CURRENTS"},"data":[0,0,0,-0.0391,-0.039,-0.03,-0.0299,-0.0146,-0.0145,0,0,0,0,0,0,0,0,0,0,0,-0.0422,-0.0421,-0.0391,-0.039,-0.03,-0.0299,-0.0146,-0.0145,0,0,0,0,0,0,0,0,0,0,0,-0.0422,-0.0421,-0.0421,-0.0389,-0.03,-0.0299,-0.0147,-0.0219,0,0,0,0,0,0,0,0,0,0,-0.0309,-0.0354,-0.0421,-0.0421,-0.0389,-0.03,-0.0299,-0.0223,-0.0215,-0.0182,0,-0.0181,0,-0.0167,-0.0136,-0.0135,0,0,0,-0.037,-0.0361,-0.0337,-0.0421,-0.0389,-0.0301,-0.0335,-0.0218,-0.0209,-0.0171,-0.0179,-0.0174,-0.0165,-0.0135,-0.0134,-0.0038,-0.0038,0,0,-0.0375,-0.0399,-0.0343,-0.0332,-0.0381,-0.0338,-0.0332,-0.0213,-0.0209,-0.0179,-0.017,-0.0162,-0.0134,-0.0133,-0.0038,-0.0038,0,0,0,-0.0402,-0.0403,-0.0381,-0.0338,-0.0329,-0.0336,-0.0329,-0.0214,-0.0208,-0.0169,-0.0161,-0.0133,-0.0131,-0.0038,-0.0038,-0.011,0,0,0,-0.0404,-0.042,-0.0384,-0.0396,-0.0332,-0.0277,-0.0334,-0.0216,-0.0202,-0.0161,-0.0133,-0.013,-0.0038,-0.0038,-0.0109,-0.0142,0,0,0,-0.0423,-0.0422,-0.0417,-0.0398,-0.0368,-0.0279,-0.0265,-0.0212,-0.0198,-0.0135,-0.013,-0.0038,-0.0038,-0.0107,-0.0138,-0.0078,0,0,0,-0.0442,-0.0471,-0.0418,-0.0441,-0.037,-0.0337,-0.0265,-0.0227,-0.0182,-0.0132,-0.0038,-0.0038,-0.0106,-0.0136,-0.0078,0.0033,0.0038,0,0,-0.0497,-0.0478,-0.0492,-0.0443,-0.0445,-0.0347,-0.032,-0.0231,-0.0165,-0.0071,-0.0069,-0.0109,-0.0138,-0.0078,0.0034,0.004,0,0,0,-0.0521,-0.0533,-0.0524,-0.0507,-0.0456,-0.039,-0.0298,-0.0242,-0.0154,-0.0141,-0.0088,-0.0104,-0.0063,0.0005,0.0009,0.0178,-0.0038,-0.0038,-0.0038,-0.0617,-0.0588,-0.0608,-0.0562,-0.0525,-0.0413,-0.0348,-0.0247,-0.0189,-0.0159,-0.0147,-0.0133,-0.0063,-0.0058,0.0113,-0.0128,-0.0128,-0.0128,-0.0128,-0.0707,-0.072,-0.0665,-0.0678,-0.0586,-0.054,-0.0384,-0.032,-0.0201,-0.018,-0.0136,-0.0057,-0.0057,0.0124,-0.0133,-0.0132,-0.0131,-0.0131,-0.0131,-0.0774,-0.0778,-0.0775,-0.0769,-0.0718,-0.0608,-0.0511,-0.0404,-0.0267,-0.0233,-0.008,-0.0077,0.0075,-0.0189,-0.0189,-0.0189,-0.0189,-0.0189,-0.0189,-0.0845,-0.0841,-0.0872,-0.0854,-0.0836,-0.0765,-0.0581,-0.0462,-0.025,-0.0136,-0.0133,0.0113,-0.015,-0.0155,-0.0188,-0.0188,-0.0188,-0.0188,-0.0188,-0.0926,-0.0922,-0.0971,-0.0974,-0.0924,-0.0787,-0.066,-0.0335,-0.0196,-0.0054,0.0227,-0.0044,0.0008,0.0007,0.0007,0.0019,0.0019,0.0019,0.0019,-0.0975,-0.098,-0.103,-0.1036,-0.099,-0.0797,-0.0456,-0.0147,0.0209,0.0394,0.0405,0.0446,0.043,0.0509,0.0496,0.0508,0.0646,0.0647,0.0648,-0.1016,-0.1027,-0.1061,-0.1063,-0.1007,-0.0741,-0.0306,0.0207,0.0623,0.0686,0.0617,0.059,0.0658,0.0619,0.0747,0.0716,0.0735,0,0]}],[{"header":{"parameterUnit":"m.s-1","parameterCategory":2,"la1":30.2992,"la2":30.254,"lo1":-89.0895,"lo2":-89.0443,"dy":0.0025,"dx":0.0025,"nx":19,"ny":19,"refTime":"2026-05-18T21:00:00:Z","depth":"2","parameterNumber":2,"parameterNumberName":"U-component_of_CURRENTS"},"data":[0,0,0,-0.2081,-0.2083,-0.2135,-0.2135,-0.2149,-0.215,0,0,0,0,0,0,0,0,0,0,0,-0.2056,-0.2056,-0.2081,-0.2083,-0.2135,-0.2135,-0.2149,-0.215,0,0,0,0,0,0,0,0,0,0,0,-0.2056,-0.2056,-0.2057,-0.2083,-0.2135,-0.2135,-0.2149,-0.2121,0,0,0,0,0,0,0,0,0,0,-0.2076,-0.2055,-0.2056,-0.2057,-0.2083,-0.2135,-0.2135,-0.2121,-0.2123,-0.2113,0,-0.2123,0,-0.2142,-0.215,-0.215,0,0,0,-0.2076,-0.2053,-0.2078,-0.2057,-0.2084,-0.2135,-0.211,-0.2122,-0.2125,-0.2116,-0.2123,-0.2124,-0.2142,-0.215,-0.215,-0.2202,-0.2203,0,0,-0.2073,-0.2054,-0.2076,-0.2079,-0.2099,-0.2108,-0.2111,-0.2125,-0.212,-0.2123,-0.2125,-0.2142,-0.215,-0.215,-0.2202,-0.2202,0,0,0,-0.2069,-0.2052,-0.2077,-0.2078,-0.2095,-0.211,-0.2114,-0.212,-0.2131,-0.2126,-0.2142,-0.215,-0.215,-0.2201,-0.2202,-0.2235,0,0,0,-0.2067,-0.205,-0.2075,-0.2063,-0.2095,-0.2114,-0.2108,-0.213,-0.2133,-0.2142,-0.215,-0.215,-0.2201,-0.2202,-0.2232,-0.2219,0,0,0,-0.2053,-0.2049,-0.2058,-0.2062,-0.209,-0.2114,-0.2126,-0.2131,-0.2143,-0.215,-0.215,-0.22,-0.2201,-0.223,-0.2217,-0.2175,0,0,0,-0.2027,-0.2057,-0.2057,-0.21,-0.209,-0.216,-0.2127,-0.2168,-0.2181,-0.215,-0.2201,-0.2202,-0.223,-0.2215,-0.2175,-0.1955,-0.1939,0,0,-0.2058,-0.206,-0.2091,-0.2093,-0.216,-0.2152,-0.221,-0.2206,-0.2193,-0.219,-0.2191,-0.2233,-0.2216,-0.2175,-0.2029,-0.201,0,0,0,-0.2097,-0.2107,-0.2133,-0.2166,-0.2214,-0.223,-0.2244,-0.2244,-0.2247,-0.2207,-0.225,-0.2238,-0.221,-0.2078,-0.2065,-0.2208,-0.2208,-0.2208,-0.2207,-0.2076,-0.2121,-0.2162,-0.2211,-0.225,-0.2289,-0.2298,-0.2294,-0.2293,-0.2302,-0.2278,-0.2285,-0.2149,-0.2135,-0.2309,-0.2309,-0.2309,-0.2309,-0.2309,-0.209,-0.2098,-0.2157,-0.221,-0.2248,-0.2289,-0.2325,-0.2328,-0.2317,-0.2326,-0.2298,-0.2137,-0.2121,-0.2312,-0.2311,-0.2311,-0.2311,-0.231,-0.231,-0.2039,-0.2045,-0.2094,-0.2152,-0.2201,-0.2262,-0.2259,-0.2306,-0.2317,-0.2312,-0.2123,-0.212,-0.2259,-0.229,-0.229,-0.229,-0.229,-0.229,-0.229,-0.1942,-0.1995,-0.2,-0.2081,-0.2102,-0.2146,-0.2211,-0.2198,-0.2141,-0.2116,-0.2113,-0.2277,-0.2278,-0.2257,-0.2286,-0.2287,-0.2287,-0.2288,-0.2288,-0.1833,-0.1863,-0.1862,-0.1881,-0.1937,-0.1888,-0.2009,-0.1915,-0.1915,-0.183,-0.1984,-0.1993,-0.1941,-0.195,-0.192,-0.1861,-0.1861,-0.1861,-0.1861,-0.1725,-0.1755,-0.1708,-0.1704,-0.1718,-0.1752,-0.1576,-0.1532,-0.1575,-0.1566,-0.1579,-0.1552,-0.1574,-0.1503,-0.1522,-0.1484,-0.1311,-0.131,-0.131,-0.1618,-0.1633,-0.1553,-0.1588,-0.1605,-0.155,-0.1314,-0.1111,-0.1095,-0.1296,-0.1565,-0.1808,-0.1803,-0.1824,-0.1745,-0.1764,-0.1715,0,0]},{"header":{"parameterUnit":"m.s-1","parameterCategory":2,"la1":30.2992,"la2":30.254,"lo1":-89.0895,"lo2":-89.0443,"dy":0.0025,"dx":0.0025,"nx":19,"ny":19,"refTime":"2026-05-18T21:00:00:Z","depth":"2","parameterNumber":3,"parameterNumberName":"V-component_of_CURRENTS"},"data":[0,0,0,-0.0379,-0.0378,-0.0304,-0.0304,-0.0173,-0.0172,0,0,0,0,0,0,0,0,0,0,0,-0.0404,-0.0403,-0.0379,-0.0378,-0.0304,-0.0304,-0.0173,-0.0172,0,0,0,0,0,0,0,0,0,0,0,-0.0404,-0.0403,-0.0403,-0.0378,-0.0305,-0.0304,-0.0173,-0.0234,0,0,0,0,0,0,0,0,0,0,-0.0308,-0.0346,-0.0403,-0.0403,-0.0378,-0.0305,-0.0304,-0.0237,-0.023,-0.0202,0,-0.0203,0,-0.0192,-0.0164,-0.0164,0,0,0,-0.0359,-0.0352,-0.0332,-0.0403,-0.0377,-0.0305,-0.0332,-0.0233,-0.0225,-0.0193,-0.0201,-0.0196,-0.019,-0.0163,-0.0163,-0.0074,-0.0074,0,0,-0.0363,-0.0385,-0.0338,-0.0328,-0.0373,-0.0335,-0.033,-0.0228,-0.0226,-0.02,-0.0193,-0.0187,-0.0162,-0.0162,-0.0074,-0.0074,0,0,0,-0.0388,-0.0388,-0.037,-0.0333,-0.0327,-0.0333,-0.0328,-0.023,-0.0225,-0.0192,-0.0186,-0.0162,-0.016,-0.0075,-0.0074,-0.0146,0,0,0,-0.0389,-0.0403,-0.0372,-0.0383,-0.033,-0.0284,-0.0332,-0.0232,-0.022,-0.0187,-0.0162,-0.0159,-0.0075,-0.0074,-0.0144,-0.0178,0,0,0,-0.0404,-0.0404,-0.0401,-0.0385,-0.0361,-0.0286,-0.0274,-0.0229,-0.0217,-0.0163,-0.0159,-0.0075,-0.0074,-0.0143,-0.0175,-0.0125,0,0,0,-0.042,-0.0447,-0.0401,-0.0424,-0.0362,-0.0335,-0.0274,-0.0242,-0.0204,-0.0161,-0.0075,-0.0074,-0.0142,-0.0173,-0.0125,-0.0048,-0.0045,0,0,-0.0469,-0.0454,-0.0467,-0.0425,-0.043,-0.0343,-0.0321,-0.0245,-0.0186,-0.0102,-0.01,-0.0145,-0.0174,-0.0125,-0.0036,-0.0034,0,0,0,-0.0492,-0.0505,-0.0497,-0.0486,-0.0441,-0.0385,-0.0305,-0.0254,-0.0177,-0.0165,-0.012,-0.0136,-0.0103,-0.0054,-0.0052,-0.0073,-0.0073,-0.0073,-0.0073,-0.058,-0.0556,-0.0577,-0.0539,-0.0507,-0.0408,-0.0352,-0.026,-0.0208,-0.0181,-0.0177,-0.0166,-0.0117,-0.0114,-0.0153,-0.0154,-0.0154,-0.0154,-0.0154,-0.0666,-0.0683,-0.0635,-0.0652,-0.0571,-0.0532,-0.039,-0.0332,-0.0227,-0.0205,-0.0168,-0.0112,-0.0116,-0.016,-0.0159,-0.0158,-0.0157,-0.0157,-0.0157,-0.0733,-0.0739,-0.074,-0.0743,-0.0701,-0.0602,-0.052,-0.0419,-0.0293,-0.0265,-0.0142,-0.014,-0.0195,-0.0228,-0.0228,-0.0228,-0.0228,-0.0228,-0.0228,-0.0805,-0.0804,-0.084,-0.083,-0.0819,-0.0761,-0.0595,-0.0491,-0.0305,-0.0201,-0.0199,-0.0189,-0.0187,-0.0196,-0.0227,-0.0227,-0.0227,-0.0227,-0.0227,-0.089,-0.0887,-0.0942,-0.0952,-0.0924,-0.0858,-0.07,-0.0421,-0.029,-0.017,-0.0129,-0.0132,-0.0085,-0.0085,-0.0089,-0.0091,-0.0091,-0.0091,-0.0091,-0.0942,-0.0947,-0.1012,-0.1032,-0.1011,-0.0899,-0.0688,-0.0394,-0.0136,-0.0036,-0.0039,-0.0031,-0.0036,0.0013,0.0011,0.0009,0.0033,0.0033,0.0033,-0.0988,-0.1003,-0.1052,-0.107,-0.1041,-0.092,-0.0705,-0.0366,-0.0046,0.0033,-0.0066,-0.0073,-0.0067,-0.0074,-0.0001,-0.0003,-0.0007,0,0]}],[{"header":{"parameterUnit":"m.s-1","parameterCategory":2,"la1":30.2992,"la2":30.254,"lo1":-89.0895,"lo2":-89.0443,"dy":0.0025,"dx":0.0025,"nx":19,"ny":19,"refTime":"2026-05-18T21:00:00:Z","depth":"4","parameterNumber":2,"parameterNumberName":"U-component_of_CURRENTS"},"data":[0,0,0,-0.1506,-0.1508,-0.1614,-0.1614,-0.1666,-0.1666,0,0,0,0,0,0,0,0,0,0,0,-0.1472,-0.1473,-0.1505,-0.1508,-0.1614,-0.1614,-0.1666,-0.1666,0,0,0,0,0,0,0,0,0,0,0,-0.1472,-0.1473,-0.1474,-0.1508,-0.1614,-0.1614,-0.1666,-0.1607,0,0,0,0,0,0,0,0,0,0,-0.1514,-0.1497,-0.1473,-0.1474,-0.1509,-0.1614,-0.1615,-0.1605,-0.1611,-0.1593,0,-0.1617,0,-0.1639,-0.1667,-0.1667,0,0,0,-0.151,-0.1493,-0.1519,-0.1474,-0.151,-0.1614,-0.1567,-0.1609,-0.1615,-0.16,-0.1618,-0.162,-0.164,-0.1667,-0.1668,-0.1701,-0.1701,0,0,-0.1504,-0.1491,-0.1515,-0.1523,-0.1545,-0.1563,-0.157,-0.1613,-0.1622,-0.1618,-0.1622,-0.164,-0.1668,-0.1668,-0.17,-0.1701,0,0,0,-0.1486,-0.1487,-0.1514,-0.152,-0.1545,-0.1566,-0.1574,-0.162,-0.163,-0.1623,-0.1641,-0.1668,-0.1668,-0.17,-0.1701,-0.1741,0,0,0,-0.1482,-0.1476,-0.1512,-0.1505,-0.1544,-0.1595,-0.1579,-0.1627,-0.1633,-0.1641,-0.1668,-0.1668,-0.17,-0.17,-0.174,-0.1745,0,0,0,-0.1466,-0.1474,-0.1489,-0.1504,-0.1549,-0.1596,-0.1608,-0.1629,-0.1643,-0.1667,-0.1668,-0.17,-0.17,-0.1738,-0.1743,-0.1719,0,0,0,-0.1445,-0.1469,-0.1489,-0.1526,-0.1548,-0.1609,-0.1609,-0.166,-0.1686,-0.1668,-0.17,-0.1701,-0.1738,-0.1741,-0.1718,-0.1474,0,0,0,-0.1459,-0.1471,-0.1492,-0.1512,-0.1567,-0.1594,-0.1649,-0.1684,-0.1682,-0.1679,-0.1681,-0.174,-0.1742,-0.1719,-0.1506,0,0,0,0,-0.1486,-0.1499,-0.1521,-0.1561,-0.1608,-0.1652,-0.1691,-0.1701,-0.1729,-0.17,-0.1739,-0.1739,-0.1722,-0.1578,-0.1703,-0.1703,-0.1703,-0.1703,-0.1703,-0.1468,-0.1504,-0.154,-0.1589,-0.1633,-0.1696,-0.1727,-0.1744,-0.1748,-0.1766,-0.1772,-0.178,-0.1631,-0.1777,-0.1777,-0.1777,-0.1778,-0.1778,-0.1778,-0.1466,-0.1471,-0.1542,-0.1593,-0.1653,-0.1707,-0.176,-0.178,-0.1796,-0.1801,-0.1783,-0.1632,-0.1782,-0.1781,-0.178,-0.178,-0.178,-0.1779,-0.1779,-0.1419,-0.1423,-0.1485,-0.1557,-0.1636,-0.1713,-0.1732,-0.1797,-0.1817,-0.1826,-0.1638,-0.1789,-0.1783,-0.1814,-0.1813,-0.1813,-0.1813,-0.1813,-0.1813,-0.1325,-0.1384,-0.1413,-0.1513,-0.1559,-0.1629,-0.1719,-0.1711,-0.1761,-0.1642,-0.1828,-0.1791,-0.179,-0.1784,-0.1812,-0.1812,-0.1813,-0.1813,-0.1813,-0.1218,-0.1266,-0.1289,-0.1335,-0.1423,-0.1457,-0.1589,-0.153,-0.1495,-0.1422,-0.1524,-0.1539,-0.1489,-0.1495,-0.1477,-0.1415,-0.1412,-0.1409,0,-0.1125,-0.1157,-0.1158,-0.1182,-0.1198,-0.1329,-0.1228,-0.1256,-0.1294,-0.1253,-0.1493,-0.1612,-0.162,-0.1569,-0.1569,-0.1548,0,0,0,-0.1036,-0.1057,-0.1015,-0.107,-0.108,-0.1089,-0.1187,-0.1123,-0.1317,-0.1199,-0.1332,-0.1352,-0.1624,-0.181,-0.1768,-0.1766,-0.1753,0,0]},{"header":{"parameterUnit":"m.s-1","parameterCategory":2,"la1":30.2992,"la2":30.254,"lo1":-89.0895,"lo2":-89.0443,"dy":0.0025,"dx":0.0025,"nx":19,"ny":19,"refTime":"2026-05-18T21:00:00:Z","depth":"4","parameterNumber":3,"parameterNumberName":"V-component_of_CURRENTS"},"data":[0,0,0,-0.0243,-0.0243,-0.0207,-0.0206,-0.0118,-0.0117,0,0,0,0,0,0,0,0,0,0,0,-0.0254,-0.0254,-0.0243,-0.0243,-0.0207,-0.0206,-0.0118,-0.0117,0,0,0,0,0,0,0,0,0,0,0,-0.0254,-0.0254,-0.0254,-0.0242,-0.0207,-0.0206,-0.0118,-0.0152,0,0,0,0,0,0,0,0,0,0,-0.0191,-0.0217,-0.0254,-0.0254,-0.0242,-0.0207,-0.0206,-0.0154,-0.015,-0.0127,0,-0.0133,0,-0.0129,-0.0112,-0.0112,0,0,0,-0.0227,-0.0221,-0.021,-0.0255,-0.0242,-0.0207,-0.0218,-0.0152,-0.0148,-0.0122,-0.0132,-0.0129,-0.0128,-0.0111,-0.0111,-0.004,-0.004,0,0,-0.0229,-0.0244,-0.0214,-0.0208,-0.0246,-0.022,-0.0218,-0.015,-0.015,-0.0131,-0.0127,-0.0126,-0.0111,-0.011,-0.004,-0.004,0,0,0,-0.0245,-0.0245,-0.0237,-0.0211,-0.0212,-0.0219,-0.0216,-0.0153,-0.015,-0.0126,-0.0125,-0.011,-0.0109,-0.0041,-0.004,-0.0101,0,0,0,-0.0246,-0.0256,-0.0238,-0.0245,-0.0214,-0.0189,-0.0221,-0.0155,-0.0147,-0.0126,-0.011,-0.0109,-0.0041,-0.004,-0.0099,-0.0139,0,0,0,-0.0254,-0.0256,-0.0256,-0.0246,-0.0238,-0.019,-0.0183,-0.0153,-0.0148,-0.0112,-0.0108,-0.0041,-0.004,-0.0098,-0.0137,-0.0103,0,0,0,-0.0263,-0.0283,-0.0257,-0.0276,-0.0239,-0.0223,-0.0184,-0.0165,-0.0139,-0.011,-0.0041,-0.004,-0.0098,-0.0135,-0.0102,-0.0119,0,0,0,-0.0296,-0.0288,-0.0298,-0.0274,-0.0286,-0.0226,-0.0215,-0.0167,-0.012,-0.0058,-0.0056,-0.01,-0.0136,-0.0103,-0.0094,0,0,0,0,-0.0313,-0.0327,-0.0323,-0.0324,-0.0294,-0.0264,-0.0209,-0.0171,-0.0116,-0.0106,-0.0074,-0.0095,-0.0072,-0.0078,-0.0038,-0.0038,-0.0038,-0.0038,-0.0039,-0.0377,-0.0364,-0.0387,-0.0368,-0.0349,-0.0284,-0.0247,-0.018,-0.0137,-0.0116,-0.0125,-0.0119,-0.0127,-0.0095,-0.0095,-0.0095,-0.0096,-0.0096,-0.0096,-0.0445,-0.0462,-0.0439,-0.0462,-0.0414,-0.0393,-0.0288,-0.0244,-0.0169,-0.0147,-0.012,-0.012,-0.0101,-0.01,-0.0099,-0.0099,-0.0098,-0.0098,-0.0098,-0.0496,-0.0503,-0.0518,-0.0542,-0.0529,-0.0464,-0.0414,-0.0334,-0.0232,-0.0213,-0.0167,-0.014,-0.0154,-0.0183,-0.0183,-0.0183,-0.0183,-0.0183,-0.0183,-0.0543,-0.0555,-0.0603,-0.0619,-0.0631,-0.0603,-0.0491,-0.0417,-0.0307,-0.0236,-0.0222,-0.0147,-0.0144,-0.0156,-0.0184,-0.0184,-0.0184,-0.0184,-0.0184,-0.0601,-0.0612,-0.0682,-0.0713,-0.073,-0.0694,-0.0603,-0.0426,-0.0344,-0.0254,-0.0217,-0.0215,-0.0186,-0.0182,-0.0194,-0.0234,-0.0234,-0.0235,0,-0.0637,-0.0648,-0.074,-0.0789,-0.0796,-0.0737,-0.0614,-0.0499,-0.0349,-0.0355,-0.0346,-0.0314,-0.0309,-0.0285,-0.028,-0.0301,0,0,0,-0.067,-0.0695,-0.0762,-0.0814,-0.082,-0.0673,-0.0574,-0.0507,-0.0389,-0.0284,-0.0242,-0.024,-0.024,-0.0186,-0.0135,-0.0131,-0.0147,0,0]}]]